Temp
63 64 66 68 69 70 72 73 72 68 67 67 67 66 66 64 63 63 64 65 66 66
63 63 64 66 68 70 71 73 74 72 69 67 66 67 66 66 64 65 65 65 67 65
63 64 65 66 66 68 69 70 72 73 72 69 66 66 66 65 65 65 66 67 65 66
63 64 65 64 66 68 69 70 70 71 72 71 68 66 65 65 64 64 65 65 66 65
63 63 63 64 65 67 68 70 70 70 70 72 72 68 65 64 64 63 63 65 64 66
62 63 63 64 65 66 68 70 71 70 70 70 70 71 69 66 64 63 64 65 64 64
61 62 64 65 66 68 69 69 70 70 70 70 71 70 68 65 64 64 62 63 64 63
61 61 62 64 66 67 67 68 69 69 69 69 67 66 66 65 64 63 62 61 60 60
53 52 54 56 57 61 62 63 60 65 66 59 56 54 54 59 58 57 56 56 56 56
48 49 49 49 50 50 50 49 47 48 49 47 49 51 52 53 56 55 57 54 54 53
45 46 46 46 46 47 47 47 46 46 46 46 46 48 48 48 48 46 46 46 46 47
45 44 44 43 43 45 45 44 44 45 45 45 45 46 47 48 47 45 44 45 45 46
48 48 45 46 44 44 45 44 45 46 48 47 46 46 47 49 49 46 46 46 46 46
45 45 47 48 48 47 46 46 45 45 46 47 48 47 47 48 48 47 45 45 44 45
MSLP
1008.47 1008.65 1008.82 1009.02 1009.11 1009.10 1008.97 1009.09 1009.70 1010.30 1010.85 1011.25 1011.61 1012.06 1012.60 1013.41 1013.91 1014.48 1014.68 1014.74 1015.03 1015.15
1007.76 1007.93 1008.07 1008.50 1008.73 1008.69 1008.80 1008.76 1008.84 1009.48 1010.15 1010.65 1010.99 1011.29 1011.79 1012.32 1013.04 1013.64 1013.83 1013.95 1014.43 1014.68
1006.72 1007.05 1007.37 1007.78 1007.95 1008.15 1008.28 1008.62 1008.66 1008.64 1009.21 1009.80 1010.40 1010.86 1011.15 1011.69 1012.30 1012.70 1013.17 1012.91 1013.60 1013.97
1005.84 1006.30 1006.75 1006.98 1007.07 1007.25 1007.55 1007.77 1008.31 1008.28 1008.32 1008.98 1009.68 1010.22 1010.63 1011.04 1011.53 1011.83 1012.15 1012.40 1012.73 1012.78
1005.40 1005.78 1006.09 1006.31 1006.47 1006.72 1006.84 1007.05 1007.50 1008.13 1008.26 1008.16 1008.53 1009.48 1010.03 1010.39 1010.75 1011.13 1011.33 1011.52 1012.03 1011.99
1004.70 1004.90 1005.22 1005.58 1005.90 1006.06 1006.28 1006.15 1006.68 1007.34 1007.60 1007.88 1008.12 1008.47 1009.02 1009.69 1010.03 1010.39 1010.59 1010.90 1011.10 1011.48
1004.50 1004.56 1004.92 1005.06 1005.22 1005.32 1005.69 1005.89 1006.03 1006.56 1007.05 1007.38 1007.69 1008.01 1008.37 1008.93 1009.37 1009.85 1010.23 1010.37 1010.51 1010.53
1004.76 1004.74 1004.85 1005.02 1005.04 1005.21 1005.42 1005.52 1005.79 1006.13 1006.54 1006.91 1007.21 1007.50 1007.85 1008.32 1008.68 1009.11 1009.54 1009.94 1010.12 1010.22
1005.44 1005.37 1005.53 1005.55 1005.79 1005.53 1005.60 1005.67 1006.19 1005.92 1006.13 1006.80 1007.32 1007.56 1007.74 1008.00 1008.36 1009.02 1009.70 1009.77 1010.11 1010.30
1006.00 1006.02 1005.93 1006.00 1006.01 1006.36 1006.83 1006.77 1007.39 1007.60 1007.69 1008.20 1007.61 1008.03 1008.03 1007.88 1008.49 1008.97 1009.09 1009.83 1010.04 1010.14
1007.24 1006.39 1006.46 1007.60 1008.09 1007.82 1007.77 1007.72 1008.11 1007.80 1008.38 1008.80 1009.20 1009.16 1009.33 1009.44 1009.81 1010.24 1010.23 1010.64 1010.78 1011.13
1009.45 1008.95 1009.08 1009.50 1008.35 1008.40 1008.51 1009.14 1009.44 1009.67 1009.86 1009.93 1010.31 1010.30 1010.15 1010.13 1010.38 1010.62 1011.20 1011.55 1011.75 1011.73
1010.17 1009.76 1009.44 1009.58 1009.84 1010.11 1010.04 1010.31 1010.67 1010.74 1010.79 1011.09 1011.25 1011.40 1011.28 1011.06 1011.24 1011.52 1011.76 1012.11 1012.18 1012.32
1011.74 1011.47 1011.13 1010.94 1010.98 1011.10 1011.15 1011.32 1011.61 1011.81 1012.19 1012.32 1012.48 1012.51 1012.36 1012.20 1012.00 1012.18 1012.35 1012.54 1012.70 1012.80
Wind_Speed
17 11 12 15 12 12 12 12 15 12 13 15 15 13 14 11 11 13 13 16 14 10
15 16 14 17 15 12 14 12 16 17 15 13 13 16 15 12 14 14 15 15 16 12
16 17 16 14 17 17 15 17 17 18 18 16 13 14 14 12 13 15 12 12 16 15
13 15 15 15 16 17 17 17 17 18 17 18 15 13 12 14 13 16 15 14 16 18
12 13 15 17 18 17 17 16 16 18 18 17 17 15 15 15 13 13 15 16 16 18
12 13 15 16 17 17 17 16 16 16 16 17 17 16 16 15 14 14 15 16 16 15
11 12 12 13 15 14 15 14 14 15 16 16 16 15 14 14 13 13 11 13 16 15
5 4 4 6 10 12 13 13 14 15 15 15 14 11 14 14 14 14 13 13 9 5
5 7 6 5 5 7 11 4 3 13 10 5 3 7 8 12 5 5 5 4 2 1
7 8 10 12 7 7 8 12 10 10 12 10 10 11 6 8 5 4 4 3 3 0
12 14 15 15 6 11 11 14 10 14 14 13 12 17 17 16 10 9 11 10 8 7
11 13 13 12 14 13 14 13 12 11 13 15 13 18 16 12 9 11 10 7 8 6
16 16 17 16 14 11 12 13 10 13 14 17 13 18 16 11 7 9 6 6 6 11
15 15 15 14 12 10 11 11 11 13 12 14 13 15 17 13 8 6 5 4 4 4
Wind_Direction
218 219 225 229 229 235 231 220 212 212 213 204 197 194 191 192 202 205 210 212 211 212
215 217 219 223 228 233 236 234 220 212 210 210 213 201 193 199 202 204 209 210 218 218
215 217 218 220 222 226 228 237 233 217 213 207 208 211 201 203 205 211 212 209 212 219
213 218 223 220 220 220 224 217 231 229 214 215 208 204 207 207 208 215 212 213 218 219
213 217 222 223 221 220 222 218 216 232 232 229 221 216 215 213 209 219 221 216 220 222
214 213 220 222 224 221 219 211 210 226 234 235 230 223 217 217 216 218 221 221 218 222
215 214 224 226 223 213 219 227 220 224 228 232 235 232 226 216 216 215 221 227 224 216
215 185 201 231 239 230 226 228 229 236 235 232 229 226 224 217 217 222 222 221 223 214
76 68 66 24 320 280 240 225 289 240 232 199 167 181 214 214 196 141 159 152 136 174
33 83 65 50 53 61 80 75 45 77 77 55 55 41 91 105 109 149 135 147 183 252
28 59 61 58 49 93 86 72 63 61 63 63 49 54 65 67 68 67 64 53 41 32
51 73 88 91 53 56 73 70 64 62 65 62 52 45 51 69 65 62 61 57 46 46
44 51 59 62 63 60 64 71 68 67 64 64 63 50 48 53 60 67 65 62 55 42
46 50 53 59 60 67 71 75 71 71 67 65 57 53 52 48 60 65 73 67 44 32